Tracking 19706 objects as of 15-Jun-2019
HD Live streaming from Space Station
objects crossing your sky now

DELTA 1 DEB

Track DELTA 1 DEB now!
10-day predictions


NORAD ID: 7052
Int'l Code: 1973-086AU
Perigee: 1,508.2 km
Apogee: 1,542.8 km
Inclination: 102.1 °
Period: 116.4 minutes
Semi major axis: 7896 km
RCS: 0.0861 m2 (small)
Launch date: November 6, 1973
Source: United States (US)
Launch site: AIR FORCE WESTERN TEST RANGE (AFWTR)

Note: This is SATELLITE DEBRIS
aabbcc
Your satellite tracking list
Your tracking list is empty




NASA's NSSDC Master Catalog

Two Line Element Set (TLE):
1  7052U 73086AU  19165.75974834 -.00000030 +00000-0 +11860-3 0  9990
2  7052 102.1280 128.9563 0021905 259.2695 219.3285 12.37242219058375
Source of the keplerian elements: AFSPC